Temperature
8 8 8 8 8 8 7 7 7 8 7 7 6 6 6 6 6 5 5 5 5 4 5 5 5 5 6 6 6 6 6 7 7 7 7 7 7 7 7 7 7 7 7 7
7 8 8 8 8 8 7 8 7 7 7 7 7 7 6 6 5 5 4 4 4 4 4 4 4 5 5 5 5 6 6 6 6 6 6 6 6 6 6 6 7 7 7 7
7 8 8 7 7 7 7 7 7 7 6 7 6 6 6 5 5 4 4 3 3 3 3 3 4 4 4 4 5 5 5 5 5 5 5 5 5 5 6 6 6 6 6 6
7 8 7 7 8 8 8 7 7 7 7 7 6 6 5 5 4 4 3 3 3 3 3 3 3 4 4 4 4 4 4 4 4 5 5 5 5 5 5 5 5 5 5 5
6 7 8 7 7 8 7 7 7 7 6 6 6 5 5 4 4 4 3 3 3 3 3 3 3 3 3 3 3 3 4 4 4 4 4 4 4 4 4 4 4 4 5 5
6 7 7 8 7 8 7 6 7 7 6 5 5 4 4 4 4 3 3 3 2 2 2 3 2 3 3 3 3 3 3 3 3 3 3 3 3 3 4 4 4 4 4 4
6 6 7 7 7 7 6 6 6 6 6 5 4 4 4 4 3 3 2 2 2 2 2 2 2 2 2 2 2 2 2 2 2 3 3 3 3 3 3 3 3 3 3 3
6 6 6 6 6 6 6 6 6 6 5 5 4 4 3 3 3 2 2 2 2 2 2 2 1 1 1 1 1 2 2 2 2 2 2 2 2 2 2 3 3 3 3 3
6 6 6 7 6 6 6 6 5 5 4 4 4 3 3 2 2 2 2 1 1 1 1 1 1 1 1 1 1 1 1 1 1 2 2 2 2 2 2 2 2 2 1 2
5 6 6 6 6 6 6 5 5 4 4 4 3 3 2 2 1 1 1 1 1 0 0 0 0 0 0 0 0 0 1 1 1 1 1 1 1 1 1 1 1 1 1 1
5 6 6 6 6 5 5 4 4 4 3 3 3 2 2 1 1 1 0 0 0 -0 -0 -0 -0 -0 -0 -0 -0 -0 -0 -0 -0 0 0 0 0 -0 -0 0 0 0 0 0
5 6 5 6 6 5 4 4 4 3 3 3 2 2 1 1 1 0 0 -0 -0 -1 -1 -1 -1 -1 -1 -1 -1 -1 -1 -1 -1 -1 -1 -1 -1 -1 -1 -1 -1 -0 -0 -0
7 7 6 6 5 5 4 4 3 3 3 2 2 2 1 1 0 -0 -0 -1 -1 -1 -1 -1 -1 -1 -1 -1 -1 -1 -2 -2 -2 -1 -1 -1 -1 -1 -1 -1 -1 -1 -1 -1
6 6 5 4 4 4 4 3 3 3 2 2 1 1 1 0 -0 -1 -1 -1 -1 -1 -2 -2 -2 -2 -2 -2 -2 -2 -2 -2 -2 -2 -2 -2 -2 -2 -2 -2 -2 -1 -1 -1
5 5 5 4 3 3 3 3 2 2 2 1 1 1 0 -0 -1 -1 -1 -1 -2 -2 -2 -2 -2 -2 -2 -2 -2 -2 -2 -2 -3 -3 -3 -3 -3 -2 -3 -2 -2 -2 -2 -2
4 4 3 3 3 2 2 2 2 1 1 1 1 0 -0 -0 -1 -1 -1 -2 -2 -2 -2 -2 -3 -3 -3 -3 -3 -3 -3 -3 -3 -3 -3 -3 -3 -3 -3 -3 -3 -3 -3 -3
3 2 2 2 2 2 2 2 1 1 1 0 0 -0 -0 -1 -1 -1 -2 -2 -2 -2 -3 -3 -3 -3 -3 -3 -3 -4 -4 -3 -3 -3 -3 -4 -4 -4 -4 -4 -4 -3 -3 -3
4 4 3 3 3 2 2 1 1 1 0 0 -0 -1 -1 -1 -2 -2 -2 -2 -2 -3 -3 -3 -3 -3 -4 -4 -4 -4 -4 -4 -4 -4 -4 -4 -4 -4 -4 -4 -4 -4 -4 -4
3 3 2 2 2 2 1 1 1 0 0 -0 -1 -1 -1 -2 -2 -2 -2 -3 -3 -3 -3 -4 -4 -4 -4 -4 -4 -4 -4 -5 -5 -5 -5 -5 -4 -4 -5 -5 -4 -4 -4 -4
2 2 2 2 2 1 1 1 0 -0 -0 -1 -1 -1 -2 -2 -2 -3 -3 -3 -3 -4 -4 -4 -4 -4 -4 -4 -5 -5 -5 -5 -5 -5 -5 -5 -5 -5 -5 -5 -5 -5 -5 -5
1 1 1 1 1 1 0 0 -0 -0 -1 -1 -1 -2 -2 -2 -2 -3 -3 -4 -4 -4 -4 -4 -4 -4 -5 -5 -5 -5 -5 -5 -5 -6 -6 -6 -6 -6 -6 -6 -6 -6 -6 -5
1 1 1 1 1 0 0 -0 -1 -1 -1 -1 -2 -2 -2 -2 -3 -3 -4 -4 -4 -4 -4 -4 -5 -5 -5 -5 -5 -5 -6 -6 -6 -6 -6 -6 -6 -6 -6 -6 -6 -6 -6 -6
1 1 0 0 0 -0 -0 -1 -1 -1 -1 -2 -2 -2 -3 -3 -3 -4 -4 -4 -4 -5 -5 -5 -5 -5 -5 -5 -5 -6 -6 -6 -6 -6 -6 -6 -6 -6 -6 -6 -6 -6 -6 -6
0 0 -0 -0 -0 -1 -1 -1 -1 -2 -2 -2 -3 -3 -3 -3 -4 -4 -4 -5 -5 -5 -5 -5 -5 -5 -5 -6 -6 -6 -6 -6 -6 -6 -6 -6 -6 -6 -7 -7 -7 -7 -7 -7
0 -0 -0 -1 -1 -1 -1 -1 -2 -2 -2 -3 -3 -3 -4 -4 -4 -4 -5 -5 -5 -5 -5 -5 -6 -6 -6 -6 -6 -6 -6 -6 -6 -6 -7 -7 -7 -7 -7 -7 -7 -7 -7 -7
-1 -1 -1 -1 -1 -1 -2 -2 -2 -2 -3 -3 -3 -4 -4 -4 -5 -5 -5 -5 -6 -6 -6 -6 -6 -6 -6 -6 -6 -6 -7 -7 -7 -7 -7 -7 -7 -7 -7 -7 -7 -7 -7 -7
-1 -1 -2 -2 -2 -2 -2 -2 -3 -3 -3 -4 -4 -4 -4 -5 -5 -5 -6 -6 -6 -6 -6 -6 -6 -6 -6 -6 -7 -7 -7 -7 -7 -7 -7 -7 -7 -7 -7 -7 -7 -7 -7 -7
Wind_Speed
1 2 1 1 1 1 0 1 1 2 2 3 3 3 4 5 6 7 8 9 9 9 8 8 8 8 8 7 7 6 6 5 5 5 5 4 4 3 3 2 2 2 1 2
2 1 1 2 2 1 1 1 1 1 1 4 4 4 4 5 5 6 7 8 8 9 8 8 8 7 7 7 7 6 5 5 4 5 5 5 4 3 3 2 2 2 2 2
1 1 2 3 3 3 2 2 2 2 1 3 3 3 2 3 4 5 6 7 7 7 7 7 7 7 6 6 6 6 5 5 5 5 4 4 4 4 3 3 3 2 2 2
2 2 3 2 2 2 2 2 2 3 3 2 2 2 3 4 4 5 5 6 6 6 6 6 6 6 6 6 5 5 5 5 5 5 5 4 4 4 4 3 3 2 2 2
1 2 3 3 3 2 2 2 3 4 3 3 3 2 3 5 5 4 4 4 4 5 5 5 6 6 6 6 5 5 5 6 6 5 5 4 4 4 4 4 3 3 2 2
1 2 3 2 4 2 2 2 3 4 4 3 2 0 1 2 3 3 4 4 4 4 5 5 6 6 6 5 6 6 5 5 5 5 5 4 4 4 4 4 3 3 3 2
3 3 3 4 5 3 3 3 4 4 4 3 2 1 1 2 2 3 3 3 3 4 4 5 5 5 5 5 5 6 6 5 5 5 5 4 4 4 4 4 4 3 3 3
4 4 5 6 5 4 2 3 4 4 3 3 3 3 2 2 1 2 2 3 3 3 4 4 4 5 5 5 6 6 6 6 6 5 5 4 4 4 3 3 3 3 3 3
4 4 2 5 4 3 4 4 3 3 3 4 3 1 1 1 1 1 2 2 3 3 4 4 4 4 5 5 6 6 6 6 6 6 5 4 4 4 3 3 2 2 2 3
3 4 4 5 4 3 4 4 4 4 3 3 2 1 0 0 1 1 1 2 2 3 4 5 5 5 5 5 5 6 6 6 6 5 5 4 3 3 3 3 3 3 2 3
5 3 3 5 6 5 4 4 4 3 3 2 2 1 0 0 1 1 2 2 2 3 4 5 5 5 5 5 5 5 5 6 6 5 5 4 4 3 3 3 3 3 3 3
6 5 5 4 6 6 6 5 5 4 3 2 2 1 0 1 1 1 2 2 3 4 5 5 5 5 5 5 5 5 5 5 5 4 4 4 4 4 4 4 5 5 5 5
3 2 3 4 5 5 5 5 4 4 4 2 1 1 0 1 1 1 2 3 4 4 5 5 5 6 6 5 5 5 6 5 4 4 4 4 4 4 4 5 5 5 5 6
4 4 2 3 4 5 5 4 4 3 3 3 2 1 0 1 1 2 3 4 4 4 5 5 5 6 6 6 5 6 6 6 5 4 4 4 4 4 3 4 4 4 4 5
6 5 5 4 5 5 5 5 4 3 3 2 2 1 1 2 3 3 3 4 4 4 5 5 6 6 6 5 5 6 5 4 4 4 4 4 3 3 3 4 3 3 3 4
5 5 5 6 6 6 5 5 5 4 3 2 2 1 2 2 3 3 3 3 3 5 5 5 6 6 6 5 6 5 5 7 6 4 4 4 3 3 3 3 3 3 3 3
7 7 7 7 7 7 7 6 5 4 3 3 2 2 1 2 3 3 4 3 4 5 5 5 5 5 5 5 5 4 4 5 6 5 4 4 3 4 3 3 3 3 3 3
7 7 7 7 7 6 6 5 4 4 3 3 2 2 2 3 4 4 4 4 4 5 4 4 4 5 5 5 4 4 4 4 4 4 4 4 4 3 3 3 3 3 3 3
6 5 5 5 6 6 5 5 4 4 3 3 3 3 3 3 3 3 3 4 5 5 4 4 6 5 5 5 5 4 4 4 4 4 4 5 5 3 3 3 3 3 2 3
4 5 5 4 4 4 4 4 4 3 3 3 2 2 3 3 3 3 3 4 4 3 3 4 4 4 4 4 5 3 4 4 4 4 4 3 3 3 3 3 3 3 3 2
5 5 5 5 4 4 4 4 4 4 3 3 3 4 3 3 2 2 3 4 3 2 3 5 3 3 3 5 5 3 3 4 4 3 4 4 4 4 3 3 3 3 3 3
4 5 5 5 4 3 3 3 4 4 3 3 3 3 2 3 3 3 4 3 3 4 3 3 3 5 6 6 3 3 3 3 3 3 3 3 4 4 4 4 3 3 3 3
4 4 5 5 5 4 3 3 3 3 3 3 3 3 3 3 2 3 4 2 2 4 4 3 5 7 7 4 3 3 3 3 3 3 3 3 3 3 4 4 3 3 3 3
4 4 4 4 4 4 3 3 3 2 2 2 3 3 3 2 2 2 1 3 4 5 3 5 7 7 6 3 2 3 3 3 3 3 3 3 3 3 3 3 3 3 3 4
4 4 4 5 5 4 4 3 2 2 2 2 2 2 2 2 2 2 2 2 4 5 3 5 6 6 4 2 2 3 3 3 3 3 3 3 3 3 4 4 3 3 3 3
4 4 4 4 4 3 3 3 3 2 2 2 1 1 0 0 1 1 1 2 3 4 3 3 3 4 3 2 3 3 3 4 4 3 3 3 4 4 4 4 4 4 4 4
4 3 3 2 2 3 3 3 3 3 2 2 1 1 1 1 1 1 2 2 2 2 3 2 2 2 3 3 3 3 3 3 3 3 3 3 3 4 4 5 4 4 4 4
Wind_Direction
335 332 343 325 323 4 337 274 151 109 101 114 89 66 57 51 43 39 36 34 33 27 25 24 21 18 16 13 10 12 20 19 16 10 10 10 8 357 347 339 316 291 271 256
288 236 309 317 302 237 247 249 178 123 66 87 86 70 58 50 43 38 32 30 27 23 20 18 14 11 10 8 3 7 17 13 10 9 7 3 358 351 341 324 308 301 283 262
278 247 297 278 239 203 172 154 167 193 154 100 87 72 69 65 54 40 31 24 20 17 12 9 6 4 2 358 357 2 6 6 7 2 1 355 351 349 340 327 316 303 290 270
295 307 261 188 61 129 167 186 158 136 122 103 80 61 73 73 61 41 24 15 12 7 2 1 0 360 355 350 356 358 359 1 360 356 349 344 343 339 331 323 316 306 304 294
281 281 252 167 164 153 166 224 172 163 140 98 69 70 69 63 57 43 25 10 2 1 358 357 357 353 350 350 353 354 353 350 344 339 336 338 340 334 327 324 319 313 303 285
264 266 262 157 129 101 100 227 149 151 151 129 96 158 215 58 46 35 28 17 1 358 3 1 352 349 350 348 347 344 341 337 332 330 329 328 326 322 321 317 309 315 311 297
238 253 269 129 135 141 174 212 137 136 142 142 154 155 99 66 49 37 24 11 3 5 1 348 343 347 345 341 336 331 333 333 330 331 325 320 324 321 320 321 320 318 310 309
197 228 241 147 151 185 179 116 122 118 122 126 107 87 76 66 53 26 8 7 8 0 345 339 343 347 338 332 330 333 334 331 330 328 325 323 320 318 320 325 323 318 319 324
204 210 148 153 155 131 114 126 126 124 116 125 130 127 97 63 29 7 1 355 355 345 331 332 342 344 331 326 329 331 332 328 325 322 318 317 316 313 316 317 309 305 309 307
265 234 181 173 160 147 133 134 126 121 119 124 137 140 128 33 354 341 344 345 341 333 326 325 332 334 325 324 326 324 324 322 317 313 314 315 311 306 303 299 302 301 296 296
247 234 178 198 184 170 144 133 127 122 120 129 134 155 197 278 304 322 332 333 331 317 312 315 323 325 326 325 327 320 315 312 313 312 311 314 312 302 297 288 280 278 274 269
219 201 183 198 170 158 156 163 158 149 145 138 146 179 200 275 301 319 319 318 312 310 312 313 318 320 322 322 321 316 312 311 311 312 310 309 311 317 323 307 310 306 291 281
190 114 120 127 138 148 159 157 151 154 160 158 155 154 196 270 299 313 311 310 307 308 309 311 316 317 320 320 318 313 306 304 305 307 306 305 305 307 315 328 331 325 313 304
154 135 150 167 166 154 146 141 139 148 152 152 153 144 320 308 314 303 298 301 305 306 307 312 315 314 319 318 316 310 307 302 302 300 302 302 301 301 300 302 312 320 321 314
192 189 179 156 144 143 142 145 154 169 162 157 147 161 233 273 280 285 299 310 312 307 307 310 309 310 319 317 311 306 305 303 303 302 300 300 300 300 298 295 293 300 309 315
175 163 156 160 168 168 166 172 184 188 177 178 182 205 243 268 283 291 300 307 307 301 302 303 301 307 319 320 316 310 304 307 313 308 304 305 305 304 302 299 297 295 297 302
166 181 183 185 188 189 189 189 188 184 178 186 204 220 252 281 290 290 293 293 288 287 290 293 299 308 313 314 312 307 307 308 312 312 305 304 303 300 299 298 300 300 300 304
190 189 180 179 182 185 188 183 179 176 182 192 193 206 231 249 268 283 294 303 302 296 291 294 306 315 312 312 311 304 303 303 305 305 306 307 308 306 306 303 301 302 312 317
169 169 170 169 170 173 174 176 174 171 170 170 190 223 240 249 265 285 299 301 295 295 302 313 322 320 312 312 320 305 303 304 307 308 309 311 314 316 317 310 304 303 307 314
146 141 137 140 143 154 162 163 160 166 171 173 196 228 249 259 269 284 288 280 273 280 298 315 317 308 307 308 317 307 306 305 306 309 314 313 312 312 311 310 310 312 311 308
143 140 142 144 143 144 151 157 166 180 184 184 202 225 244 263 268 271 277 281 287 312 323 321 319 311 310 315 315 306 302 302 304 306 310 312 314 313 312 311 309 309 308 308
154 154 156 153 150 155 160 162 170 178 184 198 213 222 240 263 269 270 261 259 287 320 323 303 303 313 320 322 306 298 299 302 304 307 309 312 313 313 312 312 310 310 308 306
155 159 160 161 163 160 155 163 170 178 192 205 213 219 232 250 258 265 281 286 310 317 316 295 307 317 323 324 307 303 302 304 306 307 308 309 309 309 308 310 312 312 311 310
154 155 154 148 142 151 175 190 179 181 191 208 217 217 219 248 272 258 266 309 316 312 304 305 317 320 325 319 304 303 303 303 303 304 307 308 307 306 305 305 305 307 306 305
154 153 154 158 169 185 189 176 167 181 190 203 217 217 209 215 241 274 290 286 301 312 310 312 319 324 327 310 308 305 302 298 299 303 301 305 305 306 305 303 301 299 296 293
162 169 177 185 185 179 173 173 185 192 187 202 224 220 231 257 261 272 278 280 289 310 314 307 313 320 317 309 306 305 303 307 312 312 305 302 301 301 300 301 299 298 295 292
156 162 164 171 176 173 174 179 186 194 193 199 227 228 227 247 264 281 292 298 307 314 312 311 313 311 308 307 304 302 303 303 302 301 301 299 297 294 294 293 293 293 292 291
Height
1461 1459 1458 1458 1458 1458 1460 1459 1462 1461 1462 1464 1465 1465 1465 1465 1464 1464 1463 1462 1460 1459 1457 1456 1455 1454 1453 1452 1452 1452 1451 1451 1450 1450 1449 1449 1448 1448 1449 1449 1449 1449 1449 1449
1462 1458 1458 1460 1458 1458 1459 1459 1460 1461 1464 1464 1465 1466 1466 1466 1466 1466 1465 1464 1462 1461 1459 1458 1456 1455 1454 1453 1453 1452 1451 1450 1450 1449 1448 1447 1447 1446 1446 1446 1446 1446 1445 1445
1463 1457 1459 1463 1458 1458 1458 1459 1461 1463 1465 1464 1465 1466 1467 1467 1467 1467 1466 1465 1464 1462 1461 1459 1458 1456 1455 1454 1453 1452 1451 1450 1449 1448 1447 1446 1445 1444 1443 1443 1442 1442 1442 1441
1464 1462 1466 1460 1455 1455 1457 1458 1459 1461 1463 1464 1465 1466 1467 1467 1467 1467 1466 1466 1464 1463 1461 1460 1458 1457 1455 1454 1453 1451 1450 1449 1447 1446 1445 1444 1443 1442 1441 1441 1439 1438 1438 1437
1466 1464 1457 1458 1456 1456 1458 1459 1458 1460 1462 1464 1465 1466 1467 1467 1467 1467 1467 1466 1464 1463 1461 1460 1458 1457 1455 1454 1452 1450 1449 1447 1446 1445 1443 1442 1440 1439 1439 1437 1436 1435 1434 1434
1465 1466 1462 1456 1456 1456 1459 1461 1458 1459 1461 1463 1464 1467 1468 1467 1467 1467 1466 1465 1463 1462 1460 1459 1458 1456 1454 1453 1451 1449 1448 1446 1444 1443 1441 1439 1438 1437 1436 1434 1433 1432 1431 1430
1467 1465 1457 1455 1455 1457 1463 1460 1458 1458 1460 1462 1463 1466 1466 1466 1466 1465 1465 1464 1462 1461 1459 1458 1456 1455 1453 1451 1449 1448 1446 1444 1442 1440 1439 1437 1435 1434 1433 1431 1430 1429 1428 1427
1463 1464 1462 1454 1455 1458 1457 1456 1456 1458 1460 1461 1462 1463 1464 1464 1464 1463 1463 1462 1461 1460 1458 1457 1455 1453 1451 1449 1448 1446 1444 1441 1439 1437 1436 1434 1432 1431 1430 1428 1427 1426 1425 1424
1456 1457 1451 1451 1452 1453 1454 1455 1456 1457 1459 1460 1461 1462 1462 1462 1462 1461 1461 1460 1459 1458 1456 1455 1453 1451 1449 1447 1445 1443 1441 1438 1436 1435 1433 1431 1429 1427 1426 1425 1424 1423 1422 1421
1452 1449 1449 1450 1451 1452 1453 1454 1455 1456 1457 1458 1459 1460 1460 1460 1460 1459 1458 1457 1456 1455 1453 1452 1450 1449 1447 1444 1442 1440 1438 1436 1434 1432 1430 1428 1426 1425 1423 1422 1421 1420 1419 1419
1450 1447 1447 1447 1448 1450 1451 1453 1454 1455 1456 1457 1457 1458 1458 1458 1457 1457 1456 1455 1454 1452 1451 1449 1447 1445 1443 1441 1439 1437 1435 1433 1431 1429 1427 1425 1423 1422 1421 1420 1420 1418 1417 1416
1445 1441 1443 1443 1444 1447 1449 1450 1452 1453 1454 1455 1455 1456 1456 1455 1455 1454 1453 1452 1451 1449 1448 1446 1444 1442 1440 1438 1436 1434 1432 1430 1428 1426 1424 1422 1420 1419 1418 1417 1416 1415 1414 1413
1437 1438 1439 1440 1442 1444 1446 1447 1449 1450 1451 1452 1453 1453 1453 1453 1452 1451 1450 1449 1448 1446 1445 1443 1441 1439 1437 1435 1433 1431 1429 1427 1425 1423 1421 1419 1417 1415 1413 1413 1412 1411 1410 1410
1434 1436 1437 1438 1440 1442 1443 1445 1447 1448 1449 1450 1450 1450 1450 1450 1449 1448 1447 1446 1445 1443 1442 1440 1438 1436 1434 1432 1430 1428 1426 1424 1422 1420 1418 1416 1415 1413 1411 1409 1408 1407 1407 1406
1431 1433 1434 1435 1437 1439 1441 1442 1444 1445 1446 1447 1447 1447 1447 1447 1446 1445 1444 1443 1442 1440 1439 1437 1435 1433 1431 1429 1427 1425 1423 1421 1419 1417 1415 1414 1412 1410 1408 1407 1405 1404 1404 1403
1427 1429 1431 1432 1434 1436 1438 1439 1440 1441 1443 1443 1444 1444 1444 1443 1443 1442 1441 1440 1438 1437 1435 1433 1432 1430 1428 1426 1423 1421 1419 1418 1416 1414 1412 1411 1409 1407 1406 1404 1403 1402 1401 1401
1423 1425 1427 1429 1431 1433 1434 1436 1437 1438 1439 1440 1440 1441 1440 1440 1439 1438 1437 1436 1435 1434 1432 1430 1428 1427 1424 1422 1420 1418 1417 1415 1413 1412 1410 1408 1407 1405 1403 1402 1401 1400 1399 1398
1419 1421 1423 1425 1427 1429 1431 1433 1434 1435 1436 1437 1437 1437 1436 1436 1435 1434 1434 1433 1431 1430 1429 1427 1425 1423 1421 1419 1417 1416 1414 1413 1411 1409 1408 1406 1404 1403 1401 1400 1399 1398 1397 1397
1416 1418 1420 1422 1424 1426 1428 1429 1430 1431 1432 1433 1433 1433 1433 1432 1432 1431 1430 1429 1427 1426 1425 1423 1422 1420 1418 1416 1415 1413 1411 1410 1408 1407 1405 1404 1402 1401 1400 1398 1397 1396 1395 1394
1414 1416 1418 1419 1421 1423 1424 1426 1427 1428 1429 1429 1429 1429 1429 1428 1428 1427 1426 1425 1424 1423 1421 1420 1418 1416 1415 1413 1412 1410 1409 1407 1406 1404 1403 1401 1400 1399 1397 1396 1395 1394 1393 1392
1411 1413 1415 1417 1419 1420 1422 1423 1423 1424 1425 1425 1425 1425 1425 1425 1424 1424 1423 1422 1421 1420 1418 1416 1415 1413 1412 1410 1409 1407 1406 1404 1403 1402 1400 1399 1398 1396 1395 1394 1393 1391 1391 1390
1409 1411 1413 1415 1416 1417 1419 1419 1420 1421 1421 1422 1422 1422 1421 1421 1421 1420 1420 1419 1417 1416 1415 1413 1412 1410 1409 1407 1406 1405 1403 1402 1400 1399 1398 1396 1395 1394 1392 1391 1390 1389 1388 1387
1408 1409 1411 1412 1414 1415 1416 1417 1417 1418 1418 1418 1418 1418 1418 1418 1417 1417 1416 1415 1414 1413 1412 1410 1409 1407 1406 1404 1403 1402 1401 1399 1398 1397 1395 1394 1393 1391 1390 1389 1388 1387 1386 1385
1406 1408 1409 1410 1411 1412 1413 1414 1415 1415 1415 1415 1415 1415 1415 1415 1414 1413 1413 1412 1411 1410 1408 1407 1406 1405 1403 1402 1401 1400 1398 1397 1396 1394 1393 1392 1390 1389 1387 1386 1385 1384 1383 1382
1405 1406 1407 1408 1408 1409 1410 1411 1412 1412 1412 1412 1412 1412 1412 1411 1411 1410 1409 1408 1408 1407 1406 1405 1403 1402 1401 1399 1398 1397 1396 1395 1393 1392 1390 1389 1388 1386 1385 1384 1383 1381 1380 1379
1402 1403 1404 1405 1406 1407 1408 1408 1408 1409 1409 1409 1409 1409 1408 1408 1408 1407 1406 1406 1405 1404 1403 1402 1401 1399 1398 1397 1396 1395 1393 1392 1391 1389 1388 1387 1385 1384 1383 1381 1380 1379 1378 1377
1400 1401 1402 1403 1403 1404 1405 1405 1405 1405 1406 1405 1405 1405 1405 1405 1404 1404 1404 1403 1402 1401 1400 1399 1398 1397 1395 1394 1393 1392 1391 1389 1388 1387 1385 1384 1382 1381 1380 1379 1377 1376 1375 1374